GFSSE_sfc_30mbdewp_000.txt.gz
Dewpoint
69 69 71 71 72 72 72 72 73 74 74 75 75 74 74 74 74 74 73 74 73 72 72 72 72 71 71 71 71 72 71 71 70 71 71 71 70 70 69 69 69 63 70
69 69 72 72 72 72 72 72 73 74 74 74 74 73 73 73 74 74 74 74 73 72 73 72 72 71 71 70 70 70 70 71 70 71 71 69 69 71 70 69 68 68 69
67 69 69 72 72 72 72 72 73 73 73 74 73 72 71 73 73 74 74 73 73 73 72 72 72 71 71 71 71 70 70 70 69 71 69 62 64 68 70 68 68 69 69
65 65 67 73 73 71 71 72 72 72 72 73 72 72 72 73 73 73 73 73 73 72 72 72 72 71 71 71 71 70 71 70 70 69 66 62 62 71 70 70 71 69 69
66 66 69 73 72 71 71 73 73 73 73 73 72 72 72 72 73 73 73 72 72 72 72 71 71 71 72 72 72 71 70 70 70 69 67 65 64 70 70 70 70 69 68
67 68 70 71 72 71 72 73 73 73 73 73 72 72 72 73 73 72 72 72 72 72 72 72 72 71 71 72 72 72 71 71 70 68 67 67 65 70 70 70 68 70 70
66 68 68 73 73 72 72 73 73 72 73 73 73 72 73 72 72 72 73 72 72 72 72 71 72 72 72 72 73 72 72 70 68 68 68 67 67 71 69 70 67 68 70
66 67 69 73 74 74 73 74 74 73 73 74 73 73 73 72 73 72 72 72 71 71 71 71 72 72 72 72 72 71 72 71 68 68 68 67 71 72 71 70 69 69 70
66 68 69 69 73 74 74 74 74 73 73 72 73 73 73 73 72 73 72 72 71 72 72 72 71 71 72 72 71 71 71 71 69 69 67 69 71 72 72 71 70 71 70
67 68 70 71 71 70 71 74 74 73 71 71 73 73 73 73 72 71 71 72 72 71 71 71 71 71 72 72 71 71 70 71 66 65 68 68 71 72 71 72 70 69 70
67 68 69 70 71 71 69 71 72 72 72 72 72 73 71 66 67 67 70 71 72 71 71 72 72 72 71 71 71 70 70 64 66 65 66 71 71 71 71 72 71 70 70
66 67 67 68 70 70 68 70 70 68 66 66 66 67 66 68 69 67 70 71 72 72 71 72 71 70 70 64 64 66 62 64 65 66 66 71 71 71 70 71 70 72 69
65 66 68 67 70 69 68 69 68 67 66 67 69 69 67 68 67 68 67 67 66 69 66 68 67 65 67 66 64 64 64 64 62 65 68 70 71 71 70 71 70 71 69
64 65 66 68 69 69 71 69 68 66 66 66 67 70 69 68 68 69 67 68 69 66 67 67 65 68 67 66 65 65 63 63 61 62 66 70 71 72 71 70 70 71 69
64 65 66 68 70 70 71 67 67 67 66 65 66 68 67 66 69 69 69 69 68 67 66 67 67 67 67 65 65 63 60 61 63 62 62 69 70 71 72 70 70 70 70
64 65 66 68 70 70 70 69 68 68 66 66 65 65 69 67 69 68 67 67 67 67 66 67 68 68 66 64 62 62 61 59 61 63 61 63 69 70 71 71 70 70 70
64 65 66 68 70 71 71 71 70 68 67 66 66 68 69 69 70 68 67 67 67 68 70 68 68 66 64 63 61 60 61 61 60 62 62 60 63 70 70 70 71 71 70
64 66 67 67 68 70 70 70 69 67 67 67 66 67 70 70 70 69 68 67 67 68 67 66 65 63 62 61 59 60 61 60 61 61 61 62 59 59 68 69 70 70 71
65 67 68 68 67 68 70 70 70 68 70 70 69 69 68 69 68 69 67 67 69 68 68 66 64 64 60 58 58 57 60 59 60 58 61 62 63 61 58 68 67 69 69
66 68 69 68 69 70 71 72 69 69 69 68 68 71 70 71 69 69 68 68 68 68 66 65 65 62 62 59 58 56 60 59 60 59 58 57 59 61 63 67 65 66 69
66 68 69 69 70 71 71 67 67 65 66 68 67 71 71 70 70 70 68 68 69 68 65 65 62 60 57 59 57 54 58 60 59 58 56 51 53 55 60 64 65 65 67
66 68 70 70 70 72 69 68 67 67 65 67 67 69 70 70 70 69 69 68 69 63 65 63 62 59 57 59 57 55 50 57 57 56 54 49 50 50 54 59 62 65 65
65 68 69 71 71 72 70 69 70 70 70 68 68 70 71 72 72 71 71 68 68 63 56 62 62 60 55 62 63 57 50 48 51 56 57 51 49 48 51 54 58 58 59
64 66 69 71 72 72 72 69 69 67 64 63 64 64 68 71 71 71 70 69 64 59 60 61 60 60 61 56 56 60 61 60 51 49 52 51 50 48 51 49 51 54 55
63 65 68 71 72 72 72 72 70 70 65 64 64 68 70 70 71 68 70 66 64 61 63 63 61 62 59 58 55 56 58 55 57 52 47 47 50 50 50 49 50 49 51
62 64 66 69 72 72 72 72 72 68 68 63 66 65 64 64 68 69 70 66 63 60 63 62 62 62 61 60 58 59 53 51 50 50 48 48 49 49 50 51 51 48 49

GFSSE_sfc_30mbdewp_003.txt.gz
Dewpoint
68 68 71 71 71 72 73 74 74 75 75 75 75 75 75 75 74 74 74 73 72 72 72 71 71 70 70 71 71 71 70 70 71 70 71 70 71 70 70 69 67 64 70
67 67 71 72 72 72 73 73 73 74 75 75 75 74 74 74 74 75 74 72 72 72 72 72 71 71 71 70 70 70 70 70 71 70 70 70 70 71 69 68 67 67 69
65 67 69 71 72 73 74 73 73 73 73 74 73 73 73 73 74 74 73 72 72 72 72 72 71 71 71 71 70 70 70 70 69 68 68 68 65 68 68 69 69 70 70
63 64 67 73 72 72 73 73 72 72 72 72 72 72 72 73 73 72 72 72 72 72 72 71 71 71 71 71 70 70 70 69 69 69 69 66 64 70 70 71 69 70 70
65 67 70 73 72 73 73 73 73 73 72 72 72 71 71 72 73 72 72 71 72 72 71 71 71 71 71 72 72 71 70 69 69 69 65 66 69 70 70 70 69 70 68
67 67 71 72 72 72 73 74 73 73 73 73 72 71 72 72 71 71 72 71 71 72 71 71 71 71 71 72 72 72 71 71 70 69 66 63 67 71 70 69 70 70 70
66 66 69 73 72 73 73 74 73 73 73 73 72 72 73 72 71 72 72 71 71 71 71 72 72 72 71 72 72 72 72 71 69 68 67 68 67 70 69 71 69 70 71
66 66 69 72 73 73 73 73 72 73 73 74 73 73 72 72 72 72 71 71 71 71 71 71 71 71 71 72 72 72 72 71 69 68 68 68 71 71 70 72 68 68 71
66 67 68 70 72 74 74 73 73 73 73 73 73 73 72 72 72 72 71 70 71 72 71 71 71 71 71 72 72 72 72 71 70 67 68 68 72 72 72 71 71 70 70
65 67 67 68 69 70 71 73 73 73 72 72 73 72 72 71 71 69 69 71 71 71 71 71 71 72 71 71 71 70 70 70 69 68 69 69 72 72 72 71 70 70 70
66 67 67 67 69 70 70 73 73 72 70 72 71 72 70 67 68 68 70 70 71 71 71 71 71 71 70 71 70 68 69 62 64 66 68 71 71 71 71 72 70 69 70
65 65 65 67 69 69 65 71 68 66 66 66 65 67 67 66 69 67 69 71 71 71 71 71 70 70 70 67 63 65 62 64 63 62 69 71 70 71 70 72 72 71 70
61 62 67 69 70 70 71 67 67 66 65 65 66 67 65 66 68 69 71 69 69 69 70 70 69 67 65 64 63 62 62 61 60 60 69 70 69 71 70 70 71 72 71
62 62 65 69 70 69 69 67 65 64 63 64 65 68 69 67 67 66 69 68 68 68 66 67 66 66 66 66 64 64 61 58 57 59 66 71 70 71 71 71 71 71 70
61 63 64 66 68 68 71 65 64 64 63 63 64 67 67 65 69 69 68 66 67 67 67 65 65 65 65 65 63 62 60 58 57 56 59 70 70 70 72 71 71 70 71
61 62 63 66 69 70 70 69 67 65 66 63 63 64 68 68 70 67 69 68 67 67 68 64 67 67 66 63 60 61 61 59 59 60 58 64 70 69 69 71 71 71 71
62 63 64 65 68 70 70 70 68 66 64 65 63 65 66 68 67 69 68 67 65 68 69 68 68 67 64 57 58 58 59 59 58 60 59 57 64 71 69 69 71 71 71
62 63 65 64 66 69 71 71 69 66 68 65 65 66 67 69 70 69 67 66 67 66 67 67 67 63 58 56 56 57 57 58 59 60 59 59 57 57 69 69 69 71 70
62 64 65 66 65 68 72 70 69 68 68 69 68 67 70 69 70 69 67 66 68 68 67 66 65 62 56 56 56 55 57 58 58 57 58 59 61 60 58 69 69 69 69
62 64 66 67 67 68 70 71 69 67 68 68 68 68 68 69 70 70 67 68 68 67 65 66 65 60 59 59 55 53 58 59 58 56 55 54 59 59 61 63 67 67 69
62 64 67 68 71 70 69 70 68 67 66 66 65 69 71 70 70 70 69 69 68 67 66 62 61 57 57 57 55 54 57 58 57 55 52 51 52 53 58 62 63 66 68
62 64 68 69 71 71 70 71 68 67 65 63 64 67 69 70 69 69 70 66 66 65 65 63 62 59 56 58 56 53 53 58 58 57 54 50 50 50 55 59 62 64 66
62 65 69 71 72 72 71 70 69 69 67 67 65 67 69 70 70 71 70 70 69 65 53 63 61 60 55 59 62 57 51 55 56 58 57 52 51 50 51 55 57 58 59
61 65 68 72 73 73 73 69 69 66 63 61 61 62 66 70 70 70 70 68 68 61 62 60 60 61 60 54 55 57 59 59 53 53 56 54 51 49 51 50 49 54 54
61 63 67 72 73 73 73 71 68 68 62 62 60 66 65 70 68 66 67 69 67 60 61 62 61 62 61 57 53 53 57 54 55 50 47 50 49 51 51 50 50 48 50
60 62 65 72 74 74 73 73 71 69 67 61 61 64 64 64 67 66 65 68 66 58 61 62 62 62 61 61 58 58 54 50 50 49 47 48 48 50 50 51 51 51 49

GFSSE_sfc_30mbdewp_006.txt.gz
Dewpoint
69 69 71 71 71 72 74 74 74 75 75 75 75 76 75 75 75 74 74 74 74 73 73 72 71 71 71 71 71 70 71 71 70 70 70 70 70 69 69 67 67 68 69
68 70 72 72 71 74 74 75 75 75 75 75 75 75 75 75 75 74 74 74 73 73 72 72 71 71 70 70 70 70 70 70 70 70 70 70 69 69 68 68 68 70 69
67 69 71 73 73 73 74 74 75 75 74 75 75 75 75 75 74 74 73 73 73 72 72 71 71 71 71 70 70 70 70 70 69 68 68 67 67 68 69 69 69 70 70
66 66 68 73 73 73 73 74 74 73 74 74 74 74 74 74 73 73 72 72 72 72 71 71 71 71 71 71 70 69 69 69 69 69 69 67 64 69 70 69 70 70 69
65 67 70 73 73 73 73 74 73 73 73 73 73 73 74 73 72 72 72 72 72 72 71 71 71 71 71 72 71 70 69 69 69 70 68 68 66 70 70 69 69 69 69
66 68 72 73 73 73 74 74 73 73 73 73 72 73 73 72 71 71 71 71 71 71 71 71 71 71 71 72 72 72 71 70 70 70 69 68 67 70 70 70 70 69 70
67 68 70 73 73 73 74 74 73 73 73 73 72 73 72 72 71 72 71 70 70 71 71 71 70 71 71 72 72 72 72 71 71 69 69 69 70 70 70 69 70 70 70
65 67 70 73 73 74 74 74 74 73 73 73 72 72 72 71 71 71 70 70 70 71 71 71 70 71 71 71 71 72 72 71 70 68 70 69 71 70 71 67 69 71 70
66 68 70 71 73 73 74 74 73 73 73 73 72 72 72 71 71 71 70 69 70 71 71 71 70 71 71 71 71 71 71 71 71 70 70 70 72 71 71 69 68 70 70
65 67 69 71 71 72 72 74 73 73 72 72 72 72 71 71 71 70 69 71 71 70 71 71 71 71 70 71 71 70 70 71 70 71 68 70 71 72 71 70 72 70 70
65 68 67 68 71 72 72 72 73 72 71 72 72 71 71 70 70 70 70 71 70 71 71 71 70 70 70 71 71 70 70 66 66 70 70 71 71 71 71 70 70 70 70
64 67 68 68 70 70 68 73 72 70 68 69 68 70 70 70 70 71 70 70 70 71 70 70 70 70 71 69 70 70 64 64 65 69 70 71 71 71 69 69 70 70 71
64 63 65 68 69 69 72 71 70 68 68 68 69 70 69 69 71 69 71 66 71 71 71 71 71 70 66 66 65 64 63 62 60 68 69 69 69 70 71 70 71 70 70
63 66 69 70 70 72 71 70 69 68 68 67 68 69 70 71 70 70 71 71 71 70 70 69 69 67 67 66 65 64 63 61 58 59 70 70 70 70 71 70 69 70 71
59 66 68 71 72 72 72 69 67 68 64 66 70 70 68 70 70 68 71 69 69 69 69 69 68 68 67 67 63 63 61 61 60 60 67 70 69 69 71 71 70 66 70
60 61 66 71 72 72 72 71 70 67 66 65 66 71 70 71 70 69 69 68 69 69 70 69 69 69 68 67 65 60 60 61 60 62 61 70 70 70 69 70 71 71 70
61 63 66 69 70 70 72 72 71 69 64 66 66 71 71 71 72 71 70 69 70 69 70 70 69 67 66 65 60 59 60 60 61 60 61 61 69 70 70 70 69 71 71
61 64 66 63 69 71 72 72 69 68 69 69 70 68 69 70 71 71 71 69 68 69 69 68 68 66 65 59 59 60 59 60 59 61 61 58 62 65 70 70 70 69 70
63 66 66 67 67 71 71 71 72 71 70 69 69 70 71 71 71 71 71 69 69 69 68 68 66 66 60 60 58 58 59 60 58 58 58 61 62 63 67 69 70 69 69
63 67 67 67 69 71 73 73 73 71 69 70 71 71 71 72 71 70 71 69 70 70 67 67 66 64 62 60 59 56 59 60 60 57 57 58 58 61 65 67 68 69 69
63 66 68 68 69 72 73 71 69 69 69 68 70 69 71 72 71 71 71 69 69 69 66 66 63 61 62 61 58 58 60 60 59 59 54 54 54 57 61 64 67 68 68
62 65 69 70 71 71 71 71 70 70 69 69 69 72 72 71 72 71 71 70 69 68 67 66 63 62 61 61 57 59 59 60 59 59 55 52 52 55 58 60 64 65 68
62 66 68 71 72 72 71 72 72 70 70 69 69 71 73 72 72 69 71 71 70 66 67 66 64 61 60 64 60 59 58 58 59 60 57 54 55 54 55 59 58 59 58
61 65 69 72 72 74 73 72 70 68 67 66 68 69 71 72 71 71 72 71 70 66 67 65 64 62 63 61 63 59 59 58 57 57 60 56 54 54 53 52 54 57 55
61 66 69 72 73 73 74 72 71 69 67 66 64 69 72 72 72 72 72 71 69 66 67 64 63 63 65 61 60 61 62 61 57 54 55 54 57 55 55 53 52 52 56
61 65 67 72 74 74 74 73 72 69 68 66 67 69 70 71 71 69 69 71 69 65 67 64 64 65 63 63 62 62 59 58 56 57 53 52 54 56 55 54 55 55 53

GFSSE_sfc_30mbdewp_009.txt.gz
Dewpoint
69 70 71 70 71 73 72 75 75 75 75 76 76 76 75 75 75 75 74 74 73 73 72 71 71 71 71 71 71 71 71 70 71 70 70 70 69 69 68 68 69 69 69
69 70 72 71 72 74 74 75 75 75 76 76 75 75 75 74 74 75 74 73 73 73 72 71 71 71 71 71 71 71 70 71 70 69 69 69 69 69 68 68 69 69 68
70 71 72 73 73 74 74 75 75 75 75 76 75 75 75 74 74 74 73 73 73 72 71 71 71 71 70 70 70 70 70 70 69 69 69 68 68 69 68 69 70 70 69
69 71 72 74 74 74 75 75 74 73 74 75 75 75 75 74 74 73 72 72 72 72 71 71 71 72 71 71 70 70 69 69 69 69 68 67 67 69 69 70 70 70 68
68 70 72 74 73 74 74 74 74 74 74 74 74 75 74 74 73 72 72 72 72 72 71 71 71 71 72 71 71 71 70 69 70 70 68 67 68 69 69 70 69 70 70
69 71 74 74 74 73 74 74 74 74 74 74 74 74 73 73 72 72 71 71 71 71 71 71 72 71 71 72 72 72 72 71 70 69 68 68 69 69 69 69 70 70 70
69 72 73 74 74 74 74 74 74 73 73 73 74 74 73 73 72 71 71 71 71 71 71 71 70 71 71 72 72 72 72 70 68 71 69 69 71 71 70 71 70 69 70
69 71 73 74 74 74 73 73 74 74 73 74 74 73 73 73 73 72 71 71 71 71 71 71 70 71 71 71 71 71 71 70 66 64 66 69 71 71 69 69 70 70 70
69 70 72 73 73 74 74 74 74 74 74 74 74 73 73 72 72 72 70 70 71 71 71 72 70 71 71 71 71 71 70 67 63 63 64 69 71 71 69 68 71 71 70
69 70 71 73 73 74 74 74 73 73 74 73 73 73 72 72 71 71 71 70 70 70 71 71 71 70 70 71 71 71 71 68 66 63 63 69 70 71 70 70 69 70 69
68 70 71 72 73 73 73 73 73 73 73 73 73 73 72 71 71 71 70 72 71 71 70 71 71 71 71 71 71 71 71 70 69 65 67 71 70 70 71 70 71 70 70
67 69 70 71 72 72 72 73 73 72 72 72 72 71 71 70 70 72 71 67 71 70 70 71 71 71 71 71 71 68 69 62 70 70 70 70 69 70 67 71 69 70 70
67 67 69 70 71 71 70 72 73 71 70 70 70 70 69 71 68 69 69 63 68 70 70 69 70 70 69 65 65 63 62 60 69 70 70 69 68 71 70 69 70 70 71
66 66 68 70 70 71 72 72 72 70 69 69 71 69 71 71 69 69 62 70 70 68 70 68 69 70 67 67 64 63 61 60 61 68 69 69 70 70 70 70 64 69 70
64 66 67 69 71 71 71 70 69 69 69 69 70 70 68 71 69 69 69 69 71 70 69 69 70 68 68 67 66 62 60 59 59 64 69 68 69 70 71 71 70 66 71
67 68 69 71 71 71 71 71 70 69 68 68 70 69 70 71 70 69 70 68 69 70 71 69 69 67 66 65 66 61 59 61 62 62 66 69 69 68 69 71 71 67 67
66 69 70 71 72 70 71 71 71 71 66 66 68 71 71 70 69 71 70 69 70 70 70 68 68 65 63 64 61 59 61 60 60 59 61 63 69 69 67 70 71 71 70
63 68 70 70 71 71 71 71 71 69 70 68 71 70 71 71 72 71 69 70 69 69 69 69 68 66 66 62 59 61 59 61 59 59 62 60 67 68 69 68 69 70 71
64 68 69 69 69 70 71 71 71 68 69 69 69 71 72 71 71 69 70 69 68 70 69 66 66 66 60 58 58 59 60 58 59 57 59 60 61 66 69 68 68 68 68
65 67 66 69 70 70 71 72 71 70 71 71 71 68 69 69 70 70 70 69 70 69 66 66 65 63 61 61 60 55 60 58 59 57 58 57 60 67 68 68 68 68 69
66 66 67 67 71 71 70 71 71 71 71 69 69 71 70 70 71 70 70 70 70 69 67 66 64 60 60 63 57 59 61 59 59 57 53 52 58 61 65 66 67 69 69
65 66 67 66 71 71 72 71 71 70 70 70 70 70 70 72 71 71 70 70 69 69 67 64 62 61 62 62 56 59 58 60 60 56 51 52 56 57 58 63 64 68 69
64 67 68 67 69 72 73 72 71 71 70 70 70 71 72 72 72 70 71 70 69 68 67 63 62 61 58 63 60 59 58 57 59 60 53 53 52 53 57 59 59 58 67
64 66 68 69 70 71 72 71 70 69 67 69 69 69 71 73 72 70 70 71 69 66 65 64 64 62 63 59 63 60 59 57 57 56 58 54 53 51 52 53 58 56 58
62 66 70 70 70 72 71 71 70 69 68 69 70 69 72 73 72 72 72 72 68 63 65 65 62 60 64 61 61 62 61 59 57 55 55 56 56 54 53 51 51 55 55
63 66 69 71 71 72 71 72 71 70 69 67 67 69 71 71 70 72 71 70 67 65 64 63 63 62 63 63 61 61 59 57 56 57 54 54 55 56 56 54 52 52 56

GFSSE_sfc_30mbdewp_015.txt.gz
Dewpoint
68 69 69 69 70 70 73 74 74 75 74 74 74 73 73 73 72 72 72 72 72 71 71 71 71 71 71 71 70 71 70 70 70 69 68 69 70 70 69 70 69 68 70
69 69 70 70 72 73 74 74 74 74 74 74 73 73 72 72 73 73 72 72 72 71 71 71 71 71 71 71 70 70 70 70 70 69 68 69 69 69 70 68 68 68 68
69 70 70 71 72 73 74 74 73 73 73 73 73 73 72 73 73 72 72 72 72 71 72 71 71 71 70 70 70 70 69 69 69 69 69 68 69 69 70 68 69 70 69
69 71 71 72 73 73 73 74 73 73 73 73 73 73 73 73 72 72 72 72 72 71 71 71 72 71 71 70 70 69 68 70 70 69 68 68 69 70 70 70 69 69 69
70 71 72 72 73 73 73 73 74 74 73 73 73 73 73 72 72 72 72 72 72 72 72 72 71 71 71 70 69 68 71 70 69 70 68 68 69 70 70 70 68 70 70
70 71 73 72 72 72 73 73 73 73 73 73 72 72 72 72 72 72 72 72 72 72 72 71 71 71 71 69 68 70 71 70 67 67 68 70 69 69 70 69 70 70 70
70 72 73 73 73 72 72 72 72 72 73 73 72 72 72 72 71 71 71 72 71 72 72 71 71 71 71 70 69 70 68 66 65 66 69 69 69 70 70 70 69 70 70
70 72 73 73 73 73 72 72 72 72 73 73 73 72 72 72 71 71 71 71 71 71 72 71 71 71 70 70 72 71 70 66 65 65 69 70 71 71 71 69 69 69 67
71 72 72 72 72 72 73 72 72 72 72 73 73 72 72 73 72 71 71 71 71 71 71 71 70 70 69 69 70 72 71 70 66 69 69 70 72 71 70 69 70 70 68
71 72 72 71 71 72 73 72 72 72 72 73 72 72 72 72 72 71 71 70 70 70 71 71 70 70 70 68 69 70 70 68 67 66 69 70 72 69 69 70 70 70 69
71 72 72 71 71 73 73 72 72 72 72 72 72 72 73 72 72 72 72 71 72 71 70 70 70 70 69 69 69 68 71 68 64 66 68 70 70 70 69 70 71 70 70
69 71 72 72 72 73 73 73 73 73 73 73 73 72 73 71 70 71 71 70 69 71 71 70 70 70 70 69 67 64 66 68 65 63 65 69 69 70 69 69 70 70 70
69 70 72 72 73 73 73 72 73 73 73 73 73 72 72 70 71 72 70 68 64 70 69 69 69 69 69 67 65 62 67 68 66 66 69 70 70 70 69 71 71 70 70
68 69 71 72 72 73 72 72 73 72 72 72 72 72 71 70 68 68 64 67 67 69 67 67 69 69 69 68 64 61 64 68 69 69 69 70 70 71 69 70 69 70 71
68 69 70 71 72 72 71 72 72 72 71 70 70 70 70 69 69 67 65 69 68 69 69 69 69 69 68 66 65 62 60 65 68 68 68 69 69 69 71 69 69 70 70
68 69 70 70 71 71 70 71 72 71 70 69 69 70 70 70 69 67 65 68 68 69 69 69 69 67 64 64 65 65 60 61 65 67 68 68 69 69 71 70 69 68 70
68 69 69 70 70 70 70 70 70 70 70 69 68 70 70 70 69 68 67 68 69 70 70 69 67 65 63 61 58 59 60 61 61 62 65 67 68 68 69 71 70 67 67
67 67 68 69 70 70 70 70 70 70 70 69 69 70 70 70 69 69 69 69 69 69 70 68 67 66 63 59 58 60 60 61 60 60 61 64 66 67 68 67 69 69 69
66 67 68 69 69 70 70 71 70 70 70 69 69 69 70 71 70 70 70 70 69 69 68 67 66 65 59 58 59 60 60 59 59 59 60 62 65 68 68 67 67 68 69
65 66 67 69 70 70 70 71 71 70 69 69 69 70 70 71 71 70 69 69 68 69 68 66 64 64 60 60 61 57 60 59 58 57 62 66 67 68 68 68 67 68 68
65 66 67 67 68 70 69 70 69 69 68 69 70 70 71 71 71 70 69 69 68 68 67 66 64 61 58 62 57 60 60 59 57 54 59 63 65 66 66 67 69 69 69
65 67 67 67 68 69 69 69 69 69 69 69 70 70 70 71 71 70 69 69 69 69 67 66 62 59 60 62 55 58 57 59 56 53 58 61 63 64 64 66 67 68 67
64 67 68 68 68 68 69 69 70 70 69 69 69 69 69 70 70 70 69 69 69 69 68 65 62 58 58 62 60 58 57 55 58 58 53 55 58 60 61 63 66 68 67
63 66 68 68 68 68 69 68 68 67 66 68 69 70 70 70 70 70 70 70 69 69 67 64 62 60 59 59 62 60 59 60 56 53 56 54 54 54 57 58 59 61 67
62 65 67 68 68 68 68 68 68 67 67 68 69 69 70 70 71 71 70 70 69 68 67 64 62 61 60 58 60 59 59 58 57 56 51 52 55 54 53 52 58 57 64
62 65 67 67 68 68 69 68 68 67 67 67 68 68 68 70 71 71 71 70 68 67 66 64 63 61 63 60 61 61 58 55 55 54 55 54 52 53 55 54 53 56 57

GFSSE_sfc_30mbdewp_021.txt.gz
Dewpoint
70 72 72 71 71 71 70 71 72 73 74 74 73 73 73 72 72 72 72 72 72 72 71 71 71 70 69 70 70 70 69 69 69 69 70 70 69 69 69 70 70 68 71
69 70 71 71 71 71 72 73 73 73 73 73 73 72 72 72 72 72 72 71 71 72 71 71 70 70 70 70 70 70 70 69 68 68 69 70 70 70 69 68 69 70 71
68 68 70 71 72 73 73 73 73 73 73 73 73 72 72 72 72 72 72 72 72 71 71 71 71 70 70 70 70 70 70 69 68 69 69 67 67 68 68 68 69 70 70
66 67 68 72 74 73 73 74 73 72 72 73 72 72 72 72 72 72 71 71 71 71 71 71 71 70 70 70 69 69 69 70 69 68 67 67 66 69 69 70 70 70 69
66 66 68 72 74 73 73 73 73 72 72 73 72 73 72 72 72 72 72 72 72 71 72 71 70 70 69 69 69 69 70 70 70 67 67 68 66 69 70 70 69 70 68
67 67 71 73 73 73 73 73 72 72 72 72 73 72 72 72 72 72 71 72 72 72 71 71 71 69 68 68 68 68 70 71 70 67 67 69 68 70 68 70 69 70 70
66 68 70 73 73 73 74 73 72 72 72 72 72 72 72 72 72 72 72 72 72 71 71 70 70 70 70 70 70 70 70 69 68 68 67 68 67 69 69 70 70 70 70
66 68 70 72 74 73 74 73 72 72 72 72 72 72 72 72 71 71 72 72 71 71 70 70 69 69 70 70 71 70 67 67 68 69 67 69 70 70 70 70 70 71 70
68 68 69 69 71 72 73 72 72 72 73 72 72 73 72 72 71 71 71 71 70 70 70 70 70 69 70 70 71 71 68 67 68 68 67 68 71 70 70 70 68 70 70
68 68 70 68 69 70 71 72 72 72 73 73 72 72 72 72 71 71 71 71 71 70 69 69 69 69 69 69 70 70 70 70 66 69 67 68 71 70 70 69 69 68 69
67 68 69 68 69 71 70 71 71 72 72 72 72 72 72 72 72 71 72 71 71 70 69 69 69 69 69 70 69 70 71 67 63 67 66 69 71 70 69 70 70 69 68
65 66 68 69 69 70 69 71 71 70 69 70 70 71 70 71 72 71 71 71 69 71 70 70 69 69 68 62 61 64 59 67 64 65 65 68 69 69 69 70 70 70 68
65 66 67 69 70 69 69 70 70 70 70 70 72 72 71 72 71 72 71 70 67 68 67 68 68 69 70 64 62 59 62 66 63 62 65 68 70 68 69 70 70 68 70
65 66 67 69 70 70 70 69 69 69 70 70 70 73 71 70 71 71 70 68 68 67 69 69 68 70 69 68 64 62 63 58 60 62 66 69 69 69 68 68 70 70 69
65 66 67 69 70 70 71 69 69 70 70 69 71 71 70 69 71 71 69 69 69 69 69 70 70 70 68 66 66 62 61 63 65 62 64 68 68 68 67 69 69 70 70
66 66 67 69 70 70 70 70 70 70 70 70 69 69 71 69 70 70 70 68 69 70 70 71 71 68 66 65 66 65 61 59 64 64 62 65 68 68 68 69 68 70 70
67 67 68 69 70 70 70 71 70 69 69 68 68 70 70 71 71 72 71 68 69 71 72 71 70 68 63 60 61 62 61 62 60 63 63 63 65 67 68 68 69 69 69
67 67 68 69 69 70 70 71 69 69 69 68 68 68 69 71 72 72 71 69 70 71 71 70 70 68 65 60 61 63 62 61 61 61 62 63 64 63 67 68 68 69 67
67 68 68 69 69 70 70 70 69 69 69 68 68 68 69 70 71 71 71 70 72 70 70 70 69 68 63 60 59 61 61 61 60 60 63 64 65 65 65 67 68 67 67
67 68 68 68 69 70 70 70 69 68 68 67 68 68 70 71 71 72 71 71 71 70 69 69 69 66 62 62 59 61 61 60 60 63 62 63 66 66 66 67 66 66 68
67 68 69 69 69 70 69 67 67 66 67 68 69 70 72 72 72 72 70 71 71 69 70 70 68 65 61 64 60 60 61 59 59 61 63 61 61 62 65 66 66 67 67
66 67 69 69 70 70 69 68 67 67 67 69 69 70 71 72 72 72 71 71 71 69 70 70 68 63 60 63 58 58 55 57 57 57 61 60 62 58 59 63 67 68 66
65 67 69 70 71 71 70 69 69 70 71 70 69 70 71 72 72 73 72 71 71 71 69 70 68 65 60 63 63 57 54 52 57 57 59 59 61 58 58 61 63 66 65
65 67 69 70 70 70 71 69 69 67 66 67 68 69 70 72 72 72 72 72 72 70 70 70 69 66 63 59 62 62 63 62 54 54 56 57 58 56 59 58 59 61 63
64 66 67 69 70 70 72 70 70 68 67 67 68 70 71 71 72 72 72 72 72 71 71 71 69 67 64 60 59 60 61 61 62 57 54 53 56 55 56 57 56 57 60
64 64 66 68 69 70 71 71 71 70 69 67 68 68 68 69 69 71 72 72 72 71 71 71 70 68 65 62 62 62 58 56 56 58 57 57 54 54 55 55 56 56 58

GFSSE_sfc_30mbdewp_024.txt.gz
Dewpoint
68 70 70 71 71 71 70 71 72 73 74 73 73 73 73 72 72 72 72 71 71 71 71 71 70 69 70 70 70 70 69 69 69 69 70 69 69 70 70 70 70 67 71
71 72 72 71 71 71 71 71 73 73 73 73 73 73 72 73 72 72 71 71 71 71 71 70 70 70 70 70 71 70 70 69 68 69 70 70 70 69 69 70 69 70 71
69 70 70 72 72 71 72 73 73 73 73 73 72 72 72 72 72 73 72 72 71 71 71 71 71 70 70 70 70 70 70 69 69 69 68 65 64 68 67 70 71 71 71
67 67 68 72 73 72 73 73 73 72 73 72 72 72 73 72 72 72 71 71 72 71 71 71 70 70 70 70 69 69 70 70 68 68 69 61 62 68 69 69 70 70 71
66 66 69 73 74 73 73 73 73 72 72 73 73 72 73 72 72 72 72 71 71 72 71 70 70 69 69 69 69 70 70 70 69 67 66 67 64 69 70 70 70 70 68
65 65 72 73 73 73 73 73 72 72 72 72 72 72 72 72 72 71 72 69 71 71 71 70 70 70 68 68 68 70 70 71 69 62 64 66 67 70 70 69 69 69 68
64 66 69 74 73 73 73 73 72 72 72 72 72 72 72 72 72 71 72 71 71 71 70 70 70 70 69 70 70 69 71 69 65 64 64 68 68 69 70 70 70 70 70
63 64 68 73 73 74 73 72 72 72 72 72 72 72 72 72 72 72 72 71 71 70 70 69 69 70 70 70 71 67 69 67 67 64 64 65 69 70 70 70 70 70 70
64 63 66 68 71 72 74 72 72 72 72 72 72 72 72 71 71 71 71 71 70 70 69 69 69 69 70 70 71 68 68 66 67 67 64 64 70 70 71 70 70 71 71
64 62 63 65 66 69 70 72 72 72 72 72 72 72 72 71 71 71 70 71 70 69 69 69 69 69 68 69 69 70 69 67 65 67 63 67 70 70 69 70 67 71 70
63 62 62 63 65 67 67 70 72 72 72 72 72 72 71 67 68 69 71 71 70 69 69 69 68 68 69 69 69 69 70 61 61 62 64 69 71 70 70 70 69 69 67
62 62 61 62 64 65 64 67 67 66 65 65 65 68 67 68 69 69 70 71 69 70 70 70 69 69 67 57 59 63 55 61 61 61 63 69 69 69 69 69 70 69 68
62 62 62 63 64 65 63 66 65 65 64 67 69 68 68 69 69 67 67 67 65 67 67 66 67 63 68 61 60 57 56 57 58 57 65 69 69 69 68 70 70 70 69
62 62 63 64 65 65 64 65 64 63 64 64 65 69 69 68 68 68 66 66 66 64 66 64 65 64 65 68 62 57 57 54 55 55 65 68 69 68 68 68 70 68 69
61 62 63 65 67 66 66 64 62 63 63 63 66 67 67 67 69 68 68 67 67 65 65 67 65 64 67 65 64 58 54 56 56 55 60 68 68 67 67 69 70 70 69
61 62 63 65 67 67 67 67 65 66 64 65 64 63 69 68 69 67 68 66 66 66 67 66 66 67 64 62 62 58 55 56 57 57 57 63 68 68 67 70 68 70 70
62 62 64 66 67 68 69 69 68 65 65 64 63 65 68 69 71 71 68 67 65 69 67 67 66 66 62 59 62 59 56 56 55 57 58 59 64 67 68 69 69 69 70
63 64 65 65 66 68 68 69 67 65 65 63 62 63 67 70 72 71 69 67 67 69 67 66 65 64 62 59 58 58 56 55 56 56 56 58 59 62 66 67 68 69 69
65 66 67 67 67 68 69 69 68 66 66 63 62 62 67 70 71 71 70 68 70 68 67 66 67 65 61 58 55 57 56 56 54 57 58 58 59 59 61 66 67 67 68
65 67 68 68 68 69 69 70 67 65 65 64 63 63 66 69 70 72 69 68 68 68 67 69 67 65 61 54 52 56 57 56 55 56 56 56 60 60 61 63 65 66 67
64 66 68 68 69 70 68 67 65 63 63 63 63 66 69 70 71 72 70 68 68 68 68 68 68 66 60 58 56 55 57 58 56 56 55 53 55 56 59 61 62 65 65
63 66 68 68 69 70 69 67 64 63 62 63 64 67 70 71 72 72 72 70 68 68 69 69 68 62 61 57 55 54 53 54 54 55 56 55 54 52 54 58 62 64 62
62 65 67 69 69 70 68 67 66 65 65 64 65 67 69 71 71 73 71 70 70 69 69 70 69 66 59 58 61 56 51 50 53 56 57 55 57 54 56 58 58 61 60
62 65 67 69 70 70 70 67 67 64 64 64 66 65 67 71 71 71 72 71 71 69 69 70 69 67 67 58 58 58 61 60 52 53 56 56 56 55 56 54 56 57 58
61 64 66 69 71 71 71 69 68 67 65 65 65 66 70 70 71 70 71 71 72 72 70 71 70 70 66 61 54 58 59 58 58 54 53 54 56 55 55 56 54 55 58
60 63 65 69 72 72 71 71 71 70 68 65 66 65 66 68 69 70 70 70 70 71 71 71 71 70 68 64 56 57 56 54 54 54 52 54 53 54 55 55 56 55 55

GFSSE_sfc_30mbdewp_027.txt.gz
Dewpoint
67 68 70 71 71 70 71 71 73 73 73 73 72 73 72 72 72 71 70 71 71 71 71 71 70 71 70 70 70 69 69 69 69 70 69 68 70 71 70 70 71 67 72
67 69 70 71 71 70 71 73 74 73 73 72 73 72 73 72 71 71 71 71 71 71 71 70 70 70 70 71 71 70 69 68 69 70 70 70 70 69 70 70 69 71 71
67 68 71 72 71 71 72 73 73 73 72 73 72 72 72 72 71 71 71 71 71 71 71 71 70 70 70 70 70 70 69 70 69 69 69 64 64 67 70 71 71 71 71
66 67 66 73 72 72 73 73 73 72 73 72 72 73 72 72 71 71 71 71 71 71 71 70 70 70 70 69 69 69 70 69 68 68 68 67 60 69 68 70 71 71 71
68 66 68 73 73 73 73 73 72 72 73 73 72 72 72 72 71 71 70 71 72 71 70 70 69 69 69 68 69 70 70 70 68 69 68 67 64 69 70 70 70 69 70
65 64 71 73 73 73 73 72 72 72 73 73 72 72 72 72 71 71 70 71 71 71 70 69 70 69 68 68 69 70 70 70 68 63 65 67 66 69 69 69 69 68 68
65 65 70 74 74 73 72 72 72 72 73 72 72 72 72 72 71 71 72 71 70 70 70 70 70 70 70 70 69 70 70 70 64 62 67 65 66 70 70 70 70 70 70
65 63 69 73 74 73 72 72 72 72 72 72 72 72 72 72 72 72 71 71 70 70 70 69 70 69 69 71 68 70 69 68 67 61 68 68 70 70 70 70 71 71 70
63 62 65 68 71 73 73 72 72 72 72 72 72 72 71 71 71 71 71 70 70 69 69 69 69 69 70 70 69 68 68 66 68 63 64 66 71 70 70 71 71 71 70
62 61 62 65 67 69 70 72 72 72 72 72 72 71 71 71 70 70 71 70 70 69 69 69 69 69 69 69 70 69 67 67 68 67 66 68 70 70 70 68 71 70 71
61 59 61 62 65 67 66 70 72 72 72 72 71 71 71 70 71 71 70 70 69 69 69 68 68 68 69 69 69 70 70 67 66 65 64 71 70 70 70 70 69 69 70
62 58 59 60 62 64 62 68 67 66 65 66 66 66 72 68 69 69 69 70 70 69 69 68 68 68 69 67 63 67 64 61 62 64 65 70 70 70 69 70 70 69 67
61 57 58 60 62 62 63 64 63 62 62 64 65 67 69 68 68 68 69 66 65 68 68 67 67 67 61 62 56 56 55 58 55 62 67 69 68 68 70 70 70 69 68
58 58 58 60 62 61 62 62 60 60 60 61 63 68 68 68 66 66 68 65 65 68 69 69 67 64 68 63 62 54 54 54 54 63 67 69 69 68 68 70 69 70 70
58 58 58 61 65 65 63 61 60 60 60 60 63 65 65 69 67 67 66 68 67 68 70 64 66 65 65 66 65 56 55 54 56 62 63 69 68 67 68 68 70 69 70
59 59 59 62 65 65 65 64 61 61 61 61 61 63 67 68 67 69 68 68 67 70 69 65 65 68 63 63 60 56 55 55 54 57 62 65 68 67 67 69 69 71 70
59 60 61 63 65 66 66 66 64 62 61 61 61 63 67 69 69 71 69 67 70 68 68 67 66 68 65 57 58 56 58 55 55 55 62 63 65 68 67 69 69 70 70
59 61 62 62 64 66 66 67 65 63 62 61 60 62 66 69 70 71 67 66 69 67 65 66 65 59 60 57 55 56 54 54 55 54 55 60 64 63 68 68 69 69 69
60 62 63 63 64 66 68 67 67 65 64 61 60 60 67 69 70 71 67 69 69 69 64 64 64 62 57 54 54 54 54 53 57 56 55 57 58 65 62 68 68 69 69
61 63 65 65 67 69 68 70 66 64 64 62 60 60 69 69 70 71 69 68 69 69 67 66 67 62 59 53 51 55 54 54 54 55 55 55 56 59 63 64 65 66 68
61 64 66 67 69 69 68 67 65 63 63 61 61 62 64 67 70 71 69 69 68 68 68 67 66 64 56 57 54 54 55 56 55 53 53 52 54 55 56 61 66 65 66
60 64 68 69 71 71 69 68 65 64 61 61 62 65 66 69 70 71 71 68 68 69 68 68 67 66 56 56 58 53 52 53 52 53 53 53 53 52 54 58 61 65 66
60 64 68 70 71 71 70 69 68 65 64 62 62 63 67 69 70 70 70 69 68 70 69 69 67 65 63 55 60 57 52 54 53 54 56 54 55 52 55 57 58 60 60
60 63 68 71 71 72 72 67 67 63 61 61 62 63 65 69 69 70 70 69 70 68 71 70 68 66 65 57 55 57 60 62 57 55 55 55 56 55 55 55 56 57 58
58 61 66 71 72 71 72 71 67 66 61 62 62 65 66 71 70 69 71 70 70 71 69 69 69 68 66 63 55 55 56 54 56 57 55 57 56 54 55 55 54 56 58
57 60 64 70 72 73 73 72 71 67 64 62 64 63 64 65 69 71 69 72 71 71 69 71 71 69 69 63 59 56 56 56 55 55 53 56 54 55 53 54 55 54 55

GFSSE_sfc_30mbdewp_030.txt.gz
Dewpoint
67 68 71 71 72 72 73 74 73 74 73 73 73 73 73 73 72 72 72 72 72 72 71 70 71 70 70 70 70 69 68 69 70 69 68 70 70 71 71 70 70 71 72
67 69 71 71 71 72 73 74 74 73 73 74 73 73 72 72 72 72 72 71 72 71 70 71 70 70 71 70 70 69 69 69 70 69 70 69 68 70 70 70 70 72 72
67 68 71 72 71 72 74 74 73 73 73 73 72 72 72 72 71 72 72 72 71 71 71 71 70 70 70 70 70 69 69 70 69 69 69 66 66 70 70 71 72 71 71
66 65 68 72 72 73 74 74 73 72 72 73 72 72 72 72 72 72 72 71 71 71 70 70 70 70 69 69 70 70 70 69 69 68 69 68 62 69 70 71 71 71 71
65 63 70 73 73 73 74 73 73 73 73 72 72 72 71 72 71 71 71 72 71 71 70 70 69 69 69 69 70 69 70 69 68 68 68 67 67 69 70 70 70 70 70
65 65 72 72 73 73 73 73 73 73 72 72 72 72 72 71 71 70 71 70 71 70 70 70 69 69 69 69 70 69 69 70 69 68 68 69 69 69 70 69 69 68 69
64 68 69 74 74 74 73 73 72 72 72 72 72 72 72 71 72 72 71 70 70 70 70 70 70 70 70 70 70 69 70 70 68 67 67 69 71 71 70 70 70 70 69
66 65 70 74 74 73 73 73 72 72 72 72 72 72 72 72 72 72 71 70 70 70 70 70 69 69 70 68 70 69 69 69 68 68 68 70 71 71 70 71 70 70 70
63 65 70 71 72 73 73 73 72 72 72 72 72 72 71 71 71 71 71 70 70 70 69 69 69 69 69 70 68 69 68 68 67 69 68 71 71 70 71 71 71 70 70
60 65 68 69 69 70 71 72 72 72 72 72 72 71 71 71 70 70 71 71 70 69 69 69 69 69 69 69 69 68 68 69 68 68 68 71 72 71 69 71 70 71 71
61 62 64 65 69 70 70 71 71 71 71 72 71 71 71 71 70 71 70 70 69 69 68 68 68 68 69 70 71 70 69 69 66 67 68 71 71 70 69 69 69 70 71
60 59 61 64 66 68 65 71 71 69 69 70 69 59 64 72 70 71 68 70 69 69 69 68 68 70 67 68 67 71 70 68 67 65 70 72 71 70 70 70 69 67 71
59 58 61 64 66 65 66 69 68 67 67 68 70 61 67 71 71 70 69 68 70 67 67 66 68 68 68 67 63 65 64 65 65 64 69 71 71 70 70 70 70 68 67
59 58 59 63 65 64 67 65 65 64 64 66 66 71 71 68 70 71 70 69 68 69 69 69 69 68 67 67 63 63 56 61 64 65 70 70 69 69 70 70 71 70 69
61 58 60 64 66 67 68 63 62 63 61 66 69 68 70 68 71 70 70 67 70 70 65 70 69 70 69 62 65 61 57 57 64 65 68 71 69 69 68 70 70 70 70
61 58 61 65 67 68 67 68 66 63 61 63 64 68 69 70 70 70 69 68 71 70 70 69 66 63 66 66 66 59 58 56 60 65 66 70 69 68 69 69 71 70 70
58 59 63 65 66 68 68 68 66 64 61 61 66 69 67 70 71 69 70 69 70 71 69 70 68 65 65 64 59 60 57 58 56 62 64 66 68 69 69 70 70 71 70
58 60 63 62 66 67 68 69 67 65 63 64 63 67 68 69 71 72 69 69 68 71 69 68 68 68 66 64 59 59 59 56 55 59 64 65 66 66 69 71 70 71 70
60 63 64 63 66 67 70 69 68 67 67 65 64 66 68 70 71 72 70 71 71 68 70 67 67 68 61 57 59 56 59 57 56 57 57 65 66 65 66 70 70 70 69
62 65 65 64 67 69 69 70 69 68 66 66 64 64 70 71 72 72 71 70 71 68 70 69 68 63 61 56 55 58 59 56 60 58 58 62 67 65 66 68 70 69 69
63 65 65 67 69 70 69 69 68 66 66 66 66 68 72 71 72 73 72 69 70 69 70 68 67 65 59 58 57 58 57 56 56 59 56 55 59 63 65 67 68 67 68
62 66 67 68 70 71 70 70 68 68 67 66 65 68 70 70 72 72 72 70 70 70 70 70 69 66 59 57 62 59 57 57 55 56 57 54 57 56 58 68 67 68 68
63 66 69 69 72 71 71 71 70 70 68 66 65 68 69 71 72 72 72 72 70 71 69 71 70 68 64 58 62 62 57 55 57 57 55 57 56 57 58 60 65 68 67
62 66 70 71 72 72 72 70 69 67 65 65 65 66 68 70 72 73 73 73 72 71 70 70 71 69 67 62 58 59 62 63 59 56 58 58 59 56 59 59 60 59 64
61 66 70 72 72 73 71 72 70 68 66 65 66 66 68 72 72 72 73 73 73 72 71 71 71 70 71 64 59 58 59 61 60 60 57 59 58 60 58 57 60 60 61
61 65 68 72 72 73 73 71 72 69 67 65 65 65 69 71 72 72 73 73 73 72 72 72 72 72 70 70 65 64 59 58 58 58 59 59 58 58 59 57 57 60 61

GFSSE_sfc_30mbdewp_033.txt.gz
Dewpoint
68 70 72 72 72 73 73 73 74 73 74 74 74 74 73 72 72 73 73 72 72 71 71 70 70 71 71 70 69 68 70 70 69 68 70 71 71 71 71 71 71 72 72
69 71 72 73 72 73 74 74 73 73 73 74 74 74 73 72 72 72 72 72 71 71 71 71 71 71 70 71 70 70 69 70 70 70 67 70 71 70 71 71 71 71 72
69 71 72 73 73 73 74 73 73 73 73 73 74 73 72 71 72 72 72 71 72 71 71 71 71 70 70 70 70 69 70 70 70 70 68 69 70 70 71 72 72 72 71
68 70 72 73 73 73 74 74 74 72 72 73 73 73 72 72 73 72 71 71 71 71 70 70 70 70 70 70 70 70 69 69 69 68 68 66 69 70 71 71 71 71 71
66 69 72 73 73 73 73 73 73 73 73 73 73 72 72 72 72 72 72 71 71 70 70 70 69 69 69 69 70 69 68 68 69 67 68 67 69 70 69 71 70 70 71
65 71 73 73 73 73 73 73 73 72 73 73 73 72 72 71 71 71 71 71 70 70 70 70 69 69 69 70 70 70 69 68 69 69 69 70 70 70 70 70 70 70 71
67 72 73 74 74 74 73 73 73 73 73 73 73 72 72 72 72 71 71 71 71 71 71 71 71 70 70 70 70 69 70 68 67 68 70 71 71 71 70 69 69 70 71
69 71 73 74 74 74 72 73 73 72 72 73 73 73 72 72 73 72 71 71 70 70 70 70 70 70 70 69 70 69 69 70 68 70 70 71 72 71 70 71 70 70 71
67 70 73 73 73 73 73 72 72 72 72 72 72 72 72 72 71 71 71 71 70 70 70 70 70 70 70 69 69 69 68 71 69 70 70 72 72 71 71 71 70 71 71
69 71 72 73 72 73 73 72 72 72 72 72 72 72 71 71 71 71 71 71 70 69 69 69 69 69 69 70 70 69 69 70 69 69 70 72 72 70 71 71 70 70 71
68 69 70 71 71 72 72 72 72 72 72 72 71 72 70 71 71 70 71 71 70 69 69 68 68 69 69 69 71 70 69 67 68 69 70 72 72 68 70 70 71 71 71
65 67 68 69 70 70 70 71 71 71 72 71 70 65 67 67 70 71 70 71 70 69 69 68 69 68 70 68 67 70 70 69 67 68 71 72 71 70 69 69 69 71 71
63 64 65 68 69 68 70 70 71 71 70 71 61 67 68 70 71 71 70 71 70 67 67 68 68 68 68 68 66 67 70 68 66 67 71 72 71 70 70 70 68 68 71
60 61 64 66 68 67 68 69 70 69 69 70 66 68 68 69 70 70 69 69 69 68 69 70 70 70 67 66 64 62 68 65 65 68 72 72 72 71 70 71 70 68 67
59 60 63 66 67 68 67 67 67 67 67 69 68 68 70 65 69 70 71 70 69 69 65 63 69 66 67 64 63 60 64 64 65 67 70 71 71 71 71 70 71 70 70
60 59 63 65 68 67 65 65 64 66 65 69 70 70 69 70 70 70 70 69 69 69 65 68 68 62 64 66 64 58 61 65 65 66 70 71 70 71 70 71 70 70 70
61 60 63 63 67 67 67 69 67 67 63 66 68 71 70 69 70 69 68 70 70 69 69 70 68 65 62 64 64 59 58 64 65 65 67 69 69 69 71 71 72 71 70
61 62 64 63 67 67 66 68 68 65 66 66 68 68 69 70 70 70 70 69 69 70 71 70 68 68 66 65 61 60 57 56 64 64 65 67 68 67 71 71 71 72 70
62 64 64 64 66 69 68 68 67 67 67 68 69 68 68 69 71 71 70 69 71 68 69 69 68 68 65 63 60 61 59 57 58 64 64 65 66 68 70 71 70 70 70
63 63 64 65 65 68 68 69 67 66 68 68 68 68 69 70 71 71 71 70 69 68 69 69 66 62 58 58 58 57 57 58 58 60 65 65 65 66 69 70 70 70 69
64 63 65 66 67 67 69 68 67 65 67 67 66 69 69 71 71 72 72 71 71 68 70 68 66 65 57 61 58 57 56 56 58 60 63 65 65 65 67 68 68 69 69
63 65 64 68 68 67 69 67 69 69 68 67 65 71 71 71 72 72 71 70 71 70 70 68 68 66 62 59 62 59 54 55 58 57 57 61 64 64 66 67 67 68 69
64 64 66 67 69 68 69 69 69 69 68 67 66 69 72 71 72 71 72 71 71 71 70 70 70 67 61 62 61 62 55 54 57 58 56 55 60 61 65 68 68 67 68
64 65 66 67 71 69 71 70 68 66 67 67 65 66 70 70 72 72 72 71 71 70 68 70 70 68 66 57 60 61 63 63 56 54 58 57 59 57 62 65 66 67 64
64 66 66 68 71 70 70 70 70 68 68 66 65 66 68 70 72 72 72 71 71 72 70 68 70 70 70 65 58 59 60 60 62 60 55 56 59 59 60 59 60 65 60
64 67 68 68 71 71 71 71 70 69 67 67 66 65 69 70 70 72 73 72 72 72 71 69 71 71 68 70 65 63 57 56 57 57 58 59 56 59 58 59 59 60 61

GFSSE_sfc_30mbdewp_036.txt.gz
Dewpoint
69 71 72 72 73 72 72 72 74 73 73 74 73 73 73 73 73 73 73 72 71 71 71 71 71 71 70 69 69 70 69 68 70 71 71 72 71 72 72 72 72 71 71
69 71 72 73 73 72 73 73 73 73 73 73 73 72 72 72 72 72 72 71 71 71 71 71 71 71 70 70 69 70 70 70 69 69 71 71 71 71 71 71 71 72 71
70 72 73 73 73 73 73 73 73 73 72 73 73 72 73 73 73 72 72 72 71 71 71 71 71 70 70 69 70 70 70 70 71 69 71 70 70 70 71 72 71 71 71
71 72 73 73 74 73 74 73 73 72 72 73 72 72 73 72 71 72 72 71 71 71 71 71 70 70 70 70 69 69 69 69 69 67 68 69 68 71 71 71 71 71 71
70 72 72 74 74 73 73 72 73 72 72 72 73 72 72 72 72 72 71 71 71 70 70 70 70 70 70 69 69 68 69 69 69 69 67 69 69 70 71 71 71 71 71
70 71 73 73 73 73 72 73 73 72 73 72 72 72 71 71 72 71 71 71 71 71 70 70 70 69 69 69 69 69 69 69 69 68 70 70 70 71 71 70 70 71 70
70 72 73 74 74 73 72 73 73 73 73 73 72 72 72 72 71 71 71 71 71 71 71 71 70 70 70 69 69 69 69 69 69 70 70 71 71 71 70 69 71 71 71
71 72 73 74 74 73 72 73 72 73 72 73 72 72 72 73 71 71 71 71 71 70 70 70 70 70 69 70 69 70 69 69 70 70 71 71 71 71 70 69 70 71 71
71 72 73 73 72 72 73 73 72 72 73 73 73 73 72 72 72 71 71 71 70 70 70 70 70 70 70 69 69 69 70 69 69 70 71 72 72 70 71 71 70 71 71
70 73 73 73 72 73 73 72 72 72 72 72 72 72 71 71 71 71 71 71 70 69 69 69 69 70 69 69 69 69 70 70 70 70 71 72 72 71 71 70 70 71 70
71 72 73 72 72 73 72 72 72 72 72 72 71 71 72 71 71 71 71 71 70 69 69 69 69 70 70 69 69 69 70 69 69 70 71 72 71 70 70 70 70 70 70
69 71 72 71 71 72 72 72 71 71 72 72 71 69 69 69 69 70 72 71 70 69 69 70 69 69 70 67 67 70 69 68 69 69 71 72 70 70 69 71 71 71 70
68 69 70 70 71 71 70 71 71 71 71 71 69 64 67 68 70 71 71 71 69 67 68 67 68 69 69 68 68 68 70 68 68 68 72 72 71 70 69 68 71 71 71
67 67 68 69 70 69 70 70 70 70 70 70 64 67 68 68 69 70 69 69 69 69 69 69 69 69 68 65 64 66 69 68 67 69 72 72 71 71 70 69 67 70 70
65 65 66 69 69 68 68 68 70 69 69 70 65 67 69 68 69 70 70 68 69 69 67 64 68 68 66 64 63 68 67 65 66 69 71 72 72 71 70 70 69 68 67
63 64 65 68 68 68 67 66 68 68 68 69 69 67 69 66 69 70 70 69 69 69 68 65 67 63 63 64 64 66 65 65 66 68 69 71 71 72 71 70 71 70 70
61 62 64 66 67 67 66 64 66 66 67 68 69 69 69 70 70 70 70 68 68 68 68 69 68 65 63 63 63 61 64 64 65 67 69 70 71 71 71 72 70 70 70
60 61 63 65 67 66 66 66 66 65 66 68 69 70 69 69 71 70 69 69 70 70 71 70 68 66 65 65 61 60 63 65 65 65 68 69 69 69 72 72 72 71 71
61 61 62 64 67 66 68 67 67 67 67 67 69 69 70 71 71 70 70 69 69 70 69 68 68 69 65 65 64 60 59 62 64 64 65 66 67 68 71 71 71 70 70
62 62 62 62 67 67 68 67 66 66 67 69 68 68 69 70 71 71 69 70 70 68 69 69 65 62 57 59 59 59 58 59 64 64 64 65 66 68 69 70 70 69 70
63 63 62 62 66 67 67 66 65 64 64 67 68 68 69 70 71 71 71 70 69 67 69 67 66 64 57 60 57 56 57 59 59 62 65 65 65 66 68 69 69 70 69
63 63 63 63 65 67 66 67 66 65 66 66 67 68 68 70 71 71 71 70 70 68 69 68 68 65 59 60 59 56 53 54 58 60 64 65 65 65 66 67 67 68 69
62 63 64 64 64 66 67 68 69 68 66 66 67 69 69 71 72 72 70 70 70 70 69 69 68 65 57 62 62 58 54 52 56 58 58 62 64 64 65 66 67 67 68
63 63 65 65 66 66 68 66 66 65 66 67 66 67 70 71 72 72 71 71 70 71 70 69 70 67 63 57 60 63 62 61 53 52 58 58 62 61 64 67 67 67 67
62 63 65 67 66 66 69 67 66 66 67 68 66 66 69 71 72 71 71 71 70 71 69 69 70 69 67 61 56 60 60 61 61 57 54 56 60 58 62 66 66 67 66
62 63 65 68 67 67 69 68 67 66 67 66 66 65 67 70 70 72 71 71 70 71 70 68 69 70 69 67 61 59 57 56 57 58 57 57 55 57 60 62 63 66 64

GFSSE_sfc_30mbdewp_042.txt.gz
Dewpoint
67 71 72 71 71 72 72 72 73 72 73 72 72 72 72 72 72 73 72 71 71 70 70 69 68 68 69 68 69 70 69 70 70 70 73 72 72 72 72 72 71 70 71
68 71 72 72 71 72 72 73 73 73 73 73 72 73 72 73 73 72 71 71 71 71 71 71 70 68 69 69 68 69 70 70 70 72 72 72 72 72 72 72 71 71 71
69 72 72 72 72 71 72 73 72 72 73 72 72 73 72 72 72 71 71 71 71 71 71 70 70 70 69 70 70 69 69 70 71 71 72 71 71 71 71 72 71 71 71
71 72 72 73 72 72 73 72 72 73 73 72 72 72 72 72 72 71 71 72 71 70 70 70 69 70 70 70 70 71 70 69 71 70 70 70 70 71 71 71 71 71 71
72 72 73 73 73 72 72 72 73 71 72 72 72 72 71 72 71 71 72 71 71 71 70 70 69 69 69 69 69 69 70 69 70 69 70 71 71 71 71 71 71 71 71
72 73 73 72 72 72 72 72 72 72 72 72 72 72 71 71 71 71 71 71 71 70 70 70 69 69 68 68 69 69 70 70 69 69 71 71 71 71 71 71 70 71 70
72 72 72 73 72 72 72 72 72 72 72 72 72 71 71 71 71 71 71 71 71 70 70 70 69 69 69 69 69 70 71 70 70 70 71 71 72 71 71 71 71 71 71
72 72 72 73 72 72 72 72 72 72 72 72 72 72 72 72 71 71 71 71 70 70 70 70 70 70 69 69 70 70 70 69 70 71 71 71 71 70 71 71 71 71 71
72 72 73 72 72 72 72 72 73 72 73 72 72 72 72 72 72 71 71 70 69 69 69 69 69 69 70 70 69 70 70 71 71 71 71 71 70 69 71 71 71 71 70
72 72 73 71 72 72 72 73 72 73 73 73 73 72 72 72 71 71 72 71 69 69 69 69 68 69 69 69 70 70 70 71 71 71 71 71 70 70 69 70 70 71 71
71 72 72 71 72 72 72 72 72 73 72 72 72 72 72 71 71 71 71 70 69 69 69 70 70 68 69 69 70 70 71 70 71 71 71 71 70 70 70 70 71 71 70
69 71 72 71 72 72 72 72 72 72 72 72 72 71 70 70 70 70 71 70 69 70 71 71 70 70 69 68 70 71 69 70 71 70 72 71 70 69 70 70 71 70 70
68 70 71 71 72 72 72 71 71 72 72 72 70 69 69 69 69 71 70 71 68 68 68 69 69 69 68 68 68 69 69 70 70 71 71 71 70 69 70 71 70 70 70
68 68 71 71 71 71 71 71 71 71 71 70 69 65 67 68 69 69 70 69 69 68 68 68 69 67 67 65 67 69 68 69 69 70 71 71 70 68 70 71 71 71 70
68 69 71 71 70 71 70 71 70 70 70 70 68 66 67 68 69 70 69 67 68 69 67 64 68 64 65 65 65 69 69 68 68 70 71 71 70 70 68 68 71 70 70
67 69 70 70 70 70 69 70 69 69 70 69 68 64 67 69 68 69 69 69 69 69 68 66 67 63 64 65 68 68 67 67 68 70 71 72 71 70 70 69 68 68 69
67 68 69 69 69 69 69 68 69 68 68 68 69 68 66 68 67 69 69 69 68 69 67 69 68 66 64 64 66 66 66 66 68 69 70 71 72 71 70 70 70 69 68
67 67 68 68 69 68 68 67 67 67 68 68 68 69 68 69 69 70 69 69 69 68 69 69 68 66 64 63 63 65 65 66 66 67 69 70 70 70 71 70 70 71 71
66 66 66 67 68 68 67 67 65 66 67 67 68 68 69 69 69 70 69 69 69 69 69 69 68 68 65 65 62 62 65 65 65 66 68 69 69 69 71 71 70 70 71
65 65 65 66 67 67 67 67 66 65 65 66 68 69 69 69 70 70 69 70 69 68 68 68 64 61 61 62 60 58 60 63 65 64 65 66 67 68 70 71 70 70 70
63 63 64 65 66 67 66 66 66 65 66 68 68 69 69 70 71 70 70 69 69 68 68 67 65 59 60 60 57 57 57 60 64 64 65 65 66 67 69 70 69 69 69
62 62 64 64 65 67 66 66 66 66 66 67 68 69 69 70 71 71 69 70 69 68 69 67 65 62 59 62 55 55 54 56 59 60 64 65 65 66 67 68 69 69 69
62 61 62 63 64 66 66 67 66 66 66 66 66 68 68 69 70 71 71 70 70 69 68 67 67 61 57 62 61 56 53 52 56 58 61 64 65 65 65 66 67 67 67
62 62 62 63 64 66 67 66 66 64 64 64 65 67 68 69 70 71 71 70 70 70 69 68 68 66 58 59 61 63 59 56 52 52 57 60 60 64 64 65 66 67 67
62 62 62 62 63 65 66 66 65 65 63 64 65 65 67 68 69 70 71 71 70 70 70 69 69 68 63 59 58 62 62 61 58 54 53 54 59 62 64 64 65 67 67
62 62 63 63 63 64 66 66 65 65 64 64 64 64 66 68 69 70 71 71 70 70 70 70 70 69 67 64 59 60 59 59 58 58 56 56 56 58 61 61 63 66 67

GFSSE_sfc_30mbdewp_045.txt.gz
Dewpoint
68 69 72 71 71 72 72 71 72 72 72 72 72 71 71 72 72 73 72 71 70 70 69 68 69 69 69 69 70 70 71 71 72 72 73 72 73 72 72 71 70 69 71
66 70 72 72 73 72 73 73 72 73 72 72 72 72 73 73 73 71 71 71 72 72 71 70 68 69 69 69 70 70 70 70 72 72 72 72 72 72 72 71 70 70 71
66 69 71 72 72 73 73 73 73 73 72 72 73 72 73 72 72 72 71 71 71 71 71 70 70 69 69 71 69 69 71 71 72 72 71 69 70 72 72 71 71 71 71
66 69 69 72 72 73 73 73 72 73 72 72 72 72 72 72 71 72 72 71 70 70 71 70 70 70 70 71 71 69 70 71 71 71 69 68 69 72 71 71 71 71 71
67 70 70 72 73 72 72 73 73 72 73 72 73 72 72 71 71 71 71 71 71 70 71 70 70 69 69 68 69 70 69 70 70 69 70 70 68 71 71 71 71 70 70
68 68 72 72 73 72 73 72 72 72 73 72 72 72 71 71 72 71 71 71 71 71 70 69 69 69 69 69 70 70 70 70 69 69 68 70 69 71 71 71 70 71 70
66 69 70 72 73 72 73 71 73 73 72 72 72 71 71 71 71 71 71 71 70 70 70 69 69 69 68 69 70 71 71 69 68 69 69 69 70 71 71 71 70 70 71
66 68 70 72 72 73 72 72 72 73 72 72 72 72 72 71 71 71 71 70 70 70 70 70 70 69 69 69 71 70 70 67 67 69 69 69 70 71 71 70 71 70 70
67 68 70 69 71 72 72 72 72 72 73 72 73 73 72 72 72 71 70 70 69 69 69 69 69 70 69 69 71 71 71 71 68 68 67 65 70 70 70 71 70 71 70
67 69 70 69 71 71 72 72 72 72 72 73 72 72 72 72 72 72 71 70 69 68 68 68 69 69 69 70 70 71 70 70 67 68 67 68 70 69 71 71 71 71 70
67 68 68 70 70 72 72 72 73 72 73 72 72 73 73 71 71 69 70 70 69 69 70 70 68 69 69 70 71 71 70 67 66 66 66 70 71 71 71 71 71 71 70
66 68 68 68 69 71 71 71 72 70 69 70 71 72 72 71 70 69 69 70 70 70 70 71 71 70 67 66 69 71 66 68 66 66 68 70 70 70 71 71 71 71 70
66 68 69 69 71 70 70 70 71 70 70 71 72 70 71 70 70 69 68 69 67 68 67 69 69 67 69 65 67 67 68 68 66 65 69 71 69 70 70 70 70 70 70
66 67 70 69 70 70 71 70 70 70 70 69 69 70 70 69 69 69 68 68 68 68 69 69 68 68 67 67 67 67 67 67 65 65 67 71 70 69 71 71 70 70 70
66 67 69 70 70 71 71 70 70 70 69 69 68 68 69 69 70 70 69 68 69 70 68 68 67 66 67 65 67 67 67 67 65 65 67 70 70 69 68 71 71 70 70
65 66 69 70 70 71 69 71 70 70 69 68 68 66 69 70 71 71 70 69 70 71 70 69 67 65 66 67 68 67 68 67 66 66 66 69 71 70 69 67 68 69 70
64 66 68 69 69 70 70 70 68 68 68 68 69 68 68 71 70 71 71 70 70 70 69 70 69 67 64 65 67 67 67 67 66 66 65 66 69 70 70 70 69 68 68
64 66 68 67 68 68 68 69 67 66 67 68 69 70 70 70 71 72 71 70 71 70 69 69 67 64 66 63 65 65 66 66 66 65 65 65 66 66 70 70 70 71 70
66 66 67 68 67 67 68 68 67 67 67 68 68 69 70 71 71 72 71 71 71 71 71 69 69 68 65 62 62 64 65 65 65 62 66 66 66 66 67 71 70 70 70
66 67 66 67 68 68 68 68 66 65 66 67 68 68 70 70 71 72 71 71 71 71 69 69 65 63 66 64 58 62 63 64 65 63 64 65 65 66 66 68 67 67 69
66 66 67 66 67 68 67 65 64 62 64 66 68 70 71 70 71 72 71 71 71 70 69 69 66 64 62 63 60 59 60 62 64 64 64 64 65 65 66 67 66 66 66
65 66 67 66 67 68 66 66 64 65 66 67 70 70 71 70 72 73 72 70 71 69 70 69 68 62 62 62 58 58 55 58 60 62 64 64 65 65 65 66 67 67 67
64 66 66 66 67 68 67 67 68 68 68 67 68 69 70 71 72 73 72 71 71 70 69 69 68 64 60 63 63 57 53 52 58 60 63 63 65 65 65 65 66 67 67
63 65 66 67 67 67 68 66 66 63 63 65 66 68 69 71 71 72 73 72 72 71 70 70 70 66 63 60 63 63 62 61 54 53 58 61 63 64 64 64 64 65 67
63 64 65 67 67 68 69 67 67 65 64 66 66 68 70 71 71 71 72 72 71 71 71 71 71 70 65 61 61 63 64 61 61 56 54 56 59 60 61 64 63 63 66
62 64 64 66 67 68 68 68 68 67 66 66 66 65 66 68 69 71 71 72 72 72 72 72 72 71 69 66 62 63 62 60 59 58 56 58 58 59 60 62 63 62 63

GFSSE_sfc_30mbdewp_048.txt.gz
Dewpoint
68 69 71 70 71 72 72 72 72 73 73 73 72 71 71 71 73 73 71 70 70 69 69 69 69 70 70 71 71 72 71 72 72 73 72 72 72 72 71 70 69 67 71
68 69 71 72 71 71 72 72 72 72 73 72 72 71 72 73 72 71 71 72 72 71 70 68 70 69 69 70 70 70 70 71 72 72 72 72 72 72 71 70 69 70 71
65 66 69 73 72 74 73 73 73 72 72 72 72 73 72 72 72 71 71 71 71 71 70 70 69 70 70 69 70 71 71 72 72 71 70 69 70 71 71 71 71 71 71
62 62 66 73 73 73 73 73 73 73 73 73 73 72 72 71 71 71 72 71 71 71 70 70 70 71 71 70 69 71 71 72 71 70 68 67 67 71 71 71 71 71 71
61 61 70 72 73 73 73 73 72 72 72 72 72 72 72 71 71 72 71 70 70 71 70 70 69 69 69 69 70 70 71 71 70 68 68 68 67 71 71 71 71 71 70
61 61 72 73 73 72 72 73 72 72 72 72 72 72 72 71 71 71 71 71 71 70 70 70 69 69 69 70 70 70 70 69 69 67 66 69 69 71 71 71 71 70 71
60 63 69 73 73 72 72 72 72 72 72 72 72 72 71 71 71 71 71 71 71 70 70 69 69 69 69 70 70 71 69 68 66 66 67 68 69 71 71 70 70 70 70
60 62 67 72 73 72 71 73 73 72 72 72 72 72 72 72 71 71 71 70 70 70 70 70 69 69 69 70 71 70 68 66 64 66 68 66 71 71 71 71 70 70 71
60 62 65 68 71 72 72 73 72 72 72 72 72 72 72 72 71 70 70 70 70 69 69 69 69 69 69 71 71 70 70 68 63 63 61 63 71 71 71 71 71 70 70
60 62 63 65 67 69 70 72 72 73 72 72 72 72 72 72 71 70 70 70 68 68 68 69 69 69 70 71 71 70 70 69 62 62 64 67 70 70 71 71 70 70 69
60 62 61 64 66 69 69 71 72 73 73 72 72 73 72 65 65 67 70 70 70 69 68 68 69 70 70 71 71 70 71 60 60 61 63 71 70 70 71 71 71 70 69
59 61 61 66 66 69 66 70 70 69 67 66 67 69 66 66 66 64 68 70 69 69 71 71 70 69 70 66 66 69 62 63 60 61 65 70 70 70 71 71 71 70 70
59 59 61 64 66 68 68 68 67 65 66 68 69 68 68 66 63 64 66 66 65 68 65 67 67 64 64 63 63 62 63 61 61 60 68 70 70 70 70 70 70 71 70
59 60 61 64 66 66 67 64 64 64 65 65 67 69 68 66 65 64 64 65 65 65 65 65 62 65 64 66 64 63 62 59 60 61 68 71 69 71 71 70 70 70 70
59 61 61 64 67 67 68 65 64 65 65 64 67 68 66 65 66 66 67 65 65 65 64 64 63 64 65 64 64 64 62 61 60 61 67 70 70 68 70 71 71 70 69
60 61 62 64 67 68 67 68 68 66 66 65 64 65 69 67 69 66 66 67 67 66 65 64 63 61 59 61 65 63 63 62 63 61 62 68 70 70 68 68 69 69 70
60 62 63 64 66 67 68 69 67 66 64 65 65 68 70 70 70 68 67 67 67 67 68 66 63 62 58 59 63 64 62 63 63 63 62 62 68 69 70 70 69 68 68
58 61 63 62 63 66 66 67 64 65 65 65 66 68 69 70 71 69 67 67 68 66 64 61 58 62 63 56 60 60 61 61 63 63 63 62 62 64 69 69 70 70 70
59 62 63 63 62 64 66 65 65 66 66 66 66 66 70 70 71 69 67 69 69 66 65 61 60 61 59 55 56 57 58 59 60 60 63 62 63 62 63 69 70 69 69
60 62 63 64 63 64 65 65 63 64 66 66 66 66 70 69 70 71 68 68 67 65 66 64 63 61 59 56 55 55 57 58 60 59 60 59 60 61 61 65 66 68 69
61 63 63 64 65 65 64 61 62 63 64 65 65 68 70 69 70 72 69 67 68 65 64 66 63 64 59 60 56 53 55 58 61 60 59 58 60 59 61 61 62 62 66
61 63 64 64 66 67 63 62 62 62 62 64 66 69 70 70 71 70 69 67 68 67 65 65 66 59 58 59 54 52 52 55 56 58 59 59 59 59 60 62 61 63 62
61 63 64 65 66 67 63 62 65 65 65 66 67 67 69 70 70 71 69 68 67 67 65 66 67 63 57 60 62 58 52 53 54 57 60 58 60 59 60 61 61 61 63
61 63 64 66 67 67 66 62 65 63 61 61 64 64 67 70 70 70 71 69 68 69 67 67 67 62 63 57 59 58 60 60 53 54 56 57 60 59 60 60 59 61 62
60 63 65 66 68 67 67 65 63 63 58 60 62 65 67 70 70 69 71 69 69 68 69 69 69 67 61 59 57 58 60 58 59 55 52 55 57 57 57 60 58 59 61
60 62 64 67 68 68 67 67 66 63 60 60 63 63 64 65 68 70 71 71 69 68 70 69 69 70 66 63 60 60 58 58 57 56 55 56 56 57 58 58 59 59 59